Location: CNYAC Observatory
(43.2150°N, 74.9500°W)
Time: 23:03:46
(UTC-05:00)

Cosmos 1975 Rocket - Visible Passes

Search period start: 23 November 2017 00:00
Search period end: 03 December 2017 00:00
Orbit: 605 x 633 km, 82.5° (Epoch: 23 November)

Date Brightness Start Highest point End Pass type
(mag) Time Alt. Az. Time Alt. Az. Time Alt. Az.
24 Nov 6.0 05:31:39 10° NE 05:33:47 13° ENE 05:35:54 10° E visible
25 Nov 5.5 05:47:51 10° NNE 05:51:24 23° ENE 05:54:56 10° SE visible
26 Nov 4.6 06:04:41 10° N 06:08:55 39° ENE 06:13:07 10° SSE visible
27 Nov 3.4 06:21:50 10° N 06:26:20 73° E 06:30:47 10° SSE visible
28 Nov 6.0 05:03:03 10° NE 05:05:21 14° ENE 05:07:38 10° E visible
29 Nov 5.4 05:19:20 10° NNE 05:22:58 24° ENE 05:26:35 10° SE visible
30 Nov 4.4 05:36:13 10° N 05:40:29 41° ENE 05:44:42 10° SSE visible
30 Nov 5.3 18:09:03 10° SE 18:09:16 11° SE 18:09:16 11° SE visible
01 Dec 3.3 05:53:22 10° N 05:57:53 77° E 06:02:21 10° SSE visible
01 Dec 4.4 18:25:38 10° SSE 18:27:43 26° SSE 18:27:43 26° SSE visible
02 Dec 6.0 04:34:28 10° NE 04:36:56 14° ENE 04:39:22 10° E visible
02 Dec 3.2 06:10:47 10° NNW 06:15:12 57° W 06:19:33 10° S visible
02 Dec 3.4 18:42:41 10° S 18:46:08 55° S 18:46:08 55° S visible
